RH
14 25 21 18 19 17 20 26 26 28 24 23 22 22 22 22 19 18 18 20 22 22 22 23 26 27 26 26 26 28 28 29 30 33 35 37 38 40 43 45 47 47 48 46
17 28 22 17 21 20 19 24 26 24 24 23 23 22 23 21 18 17 18 20 21 22 24 25 26 26 25 27 28 30 32 33 34 36 38 39 41 43 45 48 51 52 51 51
14 22 17 18 21 22 19 28 27 27 25 25 25 25 26 23 18 17 20 21 23 24 25 26 28 30 31 32 33 35 36 37 38 39 42 42 44 49 51 53 55 54 56 62
17 18 17 20 23 21 22 25 27 29 30 29 25 26 29 26 23 22 23 26 28 30 31 32 33 34 36 37 39 41 42 44 46 46 47 51 51 52 55 58 60 63 66 70
27 22 18 21 23 22 25 27 30 29 31 30 29 27 30 30 29 29 27 29 31 33 34 36 38 39 40 42 43 45 48 51 54 55 54 54 58 58 63 66 68 71 74 75
20 22 21 22 22 27 29 30 28 32 34 41 37 37 26 33 37 33 32 33 35 36 39 41 43 44 46 47 48 51 54 55 56 58 60 59 57 62 65 68 70 72 73 76
31 30 27 30 28 31 34 34 43 51 52 51 46 39 33 33 38 36 38 40 41 42 45 45 47 49 51 52 55 59 59 59 60 62 64 65 63 64 67 70 71 74 75 78
37 42 33 34 33 36 39 42 55 61 54 48 35 38 34 40 44 44 46 49 51 52 56 55 56 61 61 59 61 66 68 68 67 69 69 70 69 68 69 72 76 77 79 80
41 40 38 37 37 38 42 49 47 52 63 64 51 46 39 44 48 52 56 57 60 59 60 61 63 66 67 66 68 72 70 69 68 71 73 74 73 72 72 75 79 82 82 84
46 45 41 41 42 46 46 48 55 64 79 70 50 51 44 50 50 49 55 60 58 61 63 66 66 70 71 73 72 69 69 68 69 71 71 71 72 75 78 81 85 86 90 92
49 51 47 45 50 50 49 51 59 61 68 77 77 56 48 48 48 53 57 62 65 67 68 70 71 74 72 71 69 67 67 67 66 66 67 68 70 74 79 84 85 93 95 95
54 54 58 49 47 49 50 55 59 79 75 73 75 60 52 56 61 63 63 65 64 65 67 68 69 73 70 70 69 69 69 67 64 66 64 62 69 74 75 78 88 92 94 95
55 59 59 50 55 57 57 52 54 61 76 80 92 63 50 51 55 58 61 62 61 65 68 70 72 73 71 72 70 70 70 67 65 64 63 63 69 72 76 83 88 95 94 90
58 59 66 71 64 65 64 54 51 56 66 65 69 58 54 55 58 61 64 64 64 67 70 72 75 73 74 74 77 76 71 68 65 65 65 64 69 77 88 90 94 94 90 88
67 69 67 64 62 67 67 58 55 53 54 61 52 59 51 57 59 64 62 63 67 69 72 77 76 78 78 78 75 75 73 70 67 68 70 76 81 86 94 95 93 90 89 89
67 71 71 70 60 66 65 56 52 53 56 56 56 55 56 53 56 60 67 70 72 74 77 78 82 82 81 79 81 75 74 70 70 72 79 87 91 92 94 94 90 90 85 68
63 77 82 80 68 73 74 60 59 65 65 64 64 55 54 58 66 72 72 75 74 80 83 84 80 79 80 78 79 80 73 72 79 85 91 96 97 96 93 91 91 84 64 37
65 78 84 89 87 85 64 56 57 62 65 65 63 57 63 66 70 76 80 84 81 82 84 80 80 81 81 78 76 71 77 88 88 94 96 97 94 92 92 88 83 62 35 28
59 75 85 90 82 70 71 57 69 69 65 66 72 77 83 81 80 81 88 89 94 87 85 83 83 79 74 72 67 78 84 87 92 93 92 90 90 86 82 76 49 31 27 25
66 75 86 84 88 81 60 58 64 69 71 82 85 86 92 85 88 83 86 85 86 89 86 84 78 75 68 67 73 77 79 82 85 90 87 84 81 79 66 43 30 26 27 31
84 87 90 84 87 71 60 68 75 88 94 89 90 95 90 92 91 87 85 85 92 86 81 79 76 67 67 73 75 78 82 86 92 86 84 80 74 57 40 31 28 29 31 34
83 90 94 90 94 83 74 79 92 86 87 91 85 87 90 90 89 86 85 89 87 81 76 75 72 71 75 78 81 85 85 85 86 86 81 67 52 41 32 30 30 31 34 38
85 81 78 75 78 61 67 79 80 88 88 86 93 88 90 85 81 82 83 84 81 73 72 73 72 75 80 83 84 88 88 88 86 76 62 50 41 33 32 32 32 34 38 42
89 77 77 76 62 63 70 74 82 83 90 95 93 88 84 84 75 75 78 79 73 69 68 68 74 81 85 90 88 90 87 83 70 58 49 43 35 33 34 33 36 38 42 46
88 83 80 71 63 69 67 79 87 91 91 92 89 81 77 81 76 70 66 65 64 66 69 72 79 85 92 90 90 87 80 67 57 49 45 38 35 35 34 36 40 42 47 48
85 82 88 75 71 85 68 68 81 86 95 90 81 76 71 74 67 63 65 67 66 63 67 77 85 89 89 86 84 75 63 55 50 46 36 34 35 37 38 39 40 45 47 44